Tracking 28790 objects as of 19-Apr-2024
HD Live streaming from Space Station
objects crossing your sky now

ARIANE 44LP DEB

Track ARIANE 44LP DEB now!


NORAD ID: 33542
Int'l Code: 1988-109R
Perigee: 685.1 km
Apogee: 35,880.4 km
Inclination: 6.7 °
Period: 642.1 minutes
Semi major axis: 24653 km
RCS: 0.2707 m2 (medium)
Launch date: December 11, 1988
Source: France (FR)
Launch site: FRENCH GUIANA (FRGUI)

Note: This is SATELLITE DEBRIS
Your satellite tracking list
Your tracking list is empty




NASA's NSSDC Master Catalog

Two Line Element Set (TLE):
1 33542U 88109R   24109.75861163  .00000102  00000-0  73156-2 0  9993
2 33542   6.7305 131.1441 7137923 271.7769  25.4344  2.24273863153879
Source of the keplerian elements: AFSPC